When you browse on this site, cookies collect data to enhance your experience and personalize the content and advertising you see.
Visit our Privacy Policy to learn more. By continuing to use the site, you agree to this use of cookies and data.
  • In Schweiz
  • Länderverzeichnis
  • Für 7 Tage
  • Wassertemperatur
  • Satellitenkarten
  • Wetterkarte
  • Widgets
  • user-avatar
    Anmelden

    Stündliche Wetter Luzern

    Heute, 20 März, Mittwoch

    Zeit Temperatur Niederschläge Wind Luftdruck Luftfeuchtigkeit
    00:00 +1°C° 0 mm 1 m/S 731 mmHg 83%
    01:00 0°C° 0 mm 1 m/S 731 mmHg 83%
    02:00 0°C° 0 mm 1 m/S 731 mmHg 83%
    03:00 0°C° 0 mm 1 m/S 731 mmHg 83%
    04:00 0°C° 0 mm 1 m/S 731 mmHg 83%
    05:00 0°C° 0 mm 1 m/S 731 mmHg 82%
    06:00 0°C° 0 mm 1 m/S 732 mmHg 80%
    07:00 0°C° 0 mm 1 m/S 732 mmHg 79%
    08:00 +2°C° 0 mm 1 m/S 732 mmHg 71%
    09:00 +5°C° 0 mm 1 m/S 732 mmHg 64%
    10:00 +6°C° 0 mm 2 m/S 732 mmHg 56%
    11:00 +7°C° 0 mm 2 m/S 732 mmHg 53%
    12:00 +8°C° 0 mm 2 m/S 732 mmHg 51%
    13:00 +9°C° 0 mm 3 m/S 732 mmHg 48%
    14:00 +9°C° 0 mm 3 m/S 731 mmHg 50%
    15:00 +9°C° 0 mm 3 m/S 731 mmHg 51%
    16:00 +9°C° 0 mm 3 m/S 731 mmHg 53%
    17:00 +7°C° 0 mm 2 m/S 731 mmHg 61%
    18:00 +5°C° 0 mm 2 m/S 731 mmHg 70%
    19:00 +4°C° 0 mm 1 m/S 732 mmHg 78%
    20:00 +3°C° 0 mm 1 m/S 732 mmHg 79%
    21:00 +3°C° 0 mm 1 m/S 732 mmHg 79%
    22:00 +2°C° 0 mm 1 m/S 732 mmHg 80%
    23:00 +2°C° 0 mm 1 m/S 732 mmHg 78%

    Morgen, 21 März, Donnerstag

    Zeit Temperatur Niederschläge Wind Luftdruck Luftfeuchtigkeit
    00:00 +2°C° 0 mm 1 m/S 733 mmHg 77%
    01:00 +2°C° 0 mm 1 m/S 733 mmHg 75%
    02:00 +2°C° 0 mm 1 m/S 732 mmHg 75%
    03:00 +1°C° 0 mm 1 m/S 732 mmHg 74%
    04:00 +1°C° 0 mm 1 m/S 732 mmHg 74%
    05:00 +1°C° 0 mm 1 m/S 732 mmHg 73%
    06:00 +1°C° 0 mm 1 m/S 732 mmHg 72%
    07:00 +2°C° 0 mm 1 m/S 732 mmHg 72%
    08:00 +4°C° 0 mm 1 m/S 732 mmHg 66%
    09:00 +7°C° 0 mm 1 m/S 732 mmHg 61%
    10:00 +9°C° 0 mm 1 m/S 732 mmHg 56%
    11:00 +10°C° 0 mm 1 m/S 731 mmHg 55%
    12:00 +12°C° 0 mm 2 m/S 731 mmHg 53%
    13:00 +13°C° 0 mm 2 m/S 731 mmHg 52%
    14:00 +13°C° 0 mm 2 m/S 730 mmHg 54%
    15:00 +13°C° 0 mm 2 m/S 730 mmHg 56%
    16:00 +13°C° 0 mm 2 m/S 730 mmHg 58%
    17:00 +10°C° 0 mm 2 m/S 730 mmHg 66%
    18:00 +9°C° 0 mm 1 m/S 730 mmHg 74%
    19:00 +7°C° 0 mm 1 m/S 730 mmHg 82%
    20:00 +6°C° 0 mm 1 m/S 730 mmHg 81%
    21:00 +5°C° 0 mm 1 m/S 731 mmHg 79%
    22:00 +5°C° 0 mm 1 m/S 731 mmHg 78%
    23:00 +4°C° 0 mm 1 m/S 731 mmHg 76%

    übermorgen, 22 März, Freitag

    Zeit Temperatur Niederschläge Wind Luftdruck Luftfeuchtigkeit
    00:00 +4°C° 0 mm 1 m/S 731 mmHg 74%
    01:00 +4°C° 0 mm 1 m/S 731 mmHg 72%
    02:00 +4°C° 0 mm 1 m/S 731 mmHg 71%
    03:00 +4°C° 0 mm 1 m/S 731 mmHg 70%
    04:00 +3°C° 0 mm 1 m/S 731 mmHg 68%
    05:00 +4°C° 0 mm 1 m/S 730 mmHg 66%
    06:00 +4°C° 0 mm 1 m/S 730 mmHg 63%
    07:00 +4°C° 0 mm 1 m/S 730 mmHg 61%
    08:00 +7°C° 0 mm 1 m/S 730 mmHg 58%
    09:00 +10°C° 0 mm 1 m/S 730 mmHg 54%
    10:00 +12°C° 0 mm 0 m/S 730 mmHg 51%
    11:00 +14°C° 0 mm 0 m/S 730 mmHg 50%
    12:00 +16°C° 0 mm 1 m/S 729 mmHg 49%
    13:00 +18°C° 0 mm 1 m/S 729 mmHg 49%
    14:00 +18°C° 0 mm 1 m/S 729 mmHg 50%
    15:00 +18°C° 0 mm 1 m/S 728 mmHg 52%
    16:00 +18°C° 0 mm 1 m/S 728 mmHg 54%
    17:00 +14°C° 0 mm 1 m/S 728 mmHg 61%
    18:00 +12°C° 0 mm 1 m/S 728 mmHg 68%
    19:00 +9°C° 0 mm 1 m/S 728 mmHg 76%
    20:00 +9°C° 0 mm 1 m/S 728 mmHg 75%
    21:00 +8°C° 0 mm 1 m/S 729 mmHg 74%
    22:00 +7°C° 0 mm 2 m/S 729 mmHg 74%
    23:00 +6°C° 0 mm 2 m/S 729 mmHg 72%

    23 März, Samstag

    Zeit Temperatur Niederschläge Wind Luftdruck Luftfeuchtigkeit
    00:00 +6°C° 0 mm 2 m/S 729 mmHg 71%
    01:00 +6°C° 0 mm 2 m/S 729 mmHg 70%
    02:00 +6°C° 0 mm 2 m/S 729 mmHg 69%
    03:00 +5°C° 0 mm 2 m/S 729 mmHg 68%
    04:00 +5°C° 0 mm 2 m/S 729 mmHg 67%
    05:00 +5°C° 0 mm 2 m/S 729 mmHg 67%
    06:00 +6°C° 0 mm 1 m/S 729 mmHg 67%
    07:00 +6°C° 0 mm 1 m/S 729 mmHg 67%
    08:00 +9°C° 0 mm 1 m/S 729 mmHg 64%
    09:00 +12°C° 0 mm 1 m/S 729 mmHg 61%
    10:00 +13°C° 0 mm 0 m/S 729 mmHg 58%
    11:00 +14°C° 0 mm 0 m/S 728 mmHg 55%
    12:00 +16°C° 0 mm 1 m/S 728 mmHg 52%
    13:00 +18°C° 0 mm 1 m/S 728 mmHg 49%
    14:00 +18°C° 0 mm 1 m/S 727 mmHg 49%
    15:00 +18°C° 0 mm 1 m/S 727 mmHg 49%
    16:00 +18°C° 0 mm 1 m/S 727 mmHg 49%
    17:00 +15°C° 0 mm 1 m/S 727 mmHg 56%
    18:00 +12°C° 0 mm 1 m/S 727 mmHg 62%
    19:00 +9°C° 0 mm 0 m/S 727 mmHg 69%
    20:00 +9°C° 0 mm 1 m/S 727 mmHg 70%
    21:00 +9°C° 0 mm 1 m/S 727 mmHg 71%
    22:00 +8°C° 0 mm 1 m/S 727 mmHg 71%
    23:00 +8°C° 0 mm 1 m/S 727 mmHg 71%

    24 März, Sonntag

    Zeit Temperatur Niederschläge Wind Luftdruck Luftfeuchtigkeit
    00:00 +8°C° 0 mm 1 m/S 727 mmHg 71%
    01:00 +7°C° 0 mm 1 m/S 727 mmHg 71%
    02:00 +7°C° 0 mm 1 m/S 727 mmHg 71%
    03:00 +7°C° 0 mm 1 m/S 727 mmHg 70%
    04:00 +7°C° 0 mm 1 m/S 727 mmHg 70%
    05:00 +6°C° 0 mm 1 m/S 727 mmHg 69%
    06:00 +6°C° 0 mm 1 m/S 727 mmHg 68%
    07:00 +6°C° 0 mm 1 m/S 727 mmHg 67%
    08:00 +9°C° 0 mm 1 m/S 727 mmHg 64%
    09:00 +12°C° 0 mm 1 m/S 727 mmHg 61%
    10:00 +14°C° 0 mm 1 m/S 727 mmHg 58%
    11:00 +15°C° 0 mm 1 m/S 727 mmHg 55%
    12:00 +16°C° 0 mm 1 m/S 727 mmHg 53%
    13:00 +18°C° 0 mm 1 m/S 727 mmHg 51%
    14:00 +18°C° 0 mm 1 m/S 726 mmHg 51%
    15:00 +18°C° 0 mm 1 m/S 726 mmHg 51%
    16:00 +16°C° 0 mm 2 m/S 726 mmHg 52%
    17:00 +14°C° 0 mm 1 m/S 726 mmHg 61%
    18:00 +12°C° 0 mm 1 m/S 726 mmHg 70%
    19:00 +8°C° 0 mm 0 m/S 726 mmHg 80%
    20:00 +9°C° 0 mm 1 m/S 727 mmHg 81%
    21:00 +8°C° 0 mm 1 m/S 727 mmHg 83%
    22:00 +7°C° 0 mm 1 m/S 727 mmHg 85%
    23:00 +7°C° 0 mm 1 m/S 727 mmHg 84%

    25 März, Montag

    Zeit Temperatur Niederschläge Wind Luftdruck Luftfeuchtigkeit
    00:00 +7°C° 0 mm 1 m/S 727 mmHg 84%
    01:00 +7°C° 0 mm 1 m/S 727 mmHg 84%
    02:00 +7°C° 0 mm 1 m/S 727 mmHg 84%
    03:00 +7°C° 0 mm 1 m/S 727 mmHg 85%
    04:00 +7°C° 0 mm 1 m/S 728 mmHg 85%
    05:00 +6°C° 0.1 mm 0 m/S 728 mmHg 86%
    06:00 +6°C° 0.1 mm 0 m/S 728 mmHg 87%
    07:00 +6°C° 0.1 mm 0 m/S 728 mmHg 87%
    08:00 +8°C° 0.1 mm 1 m/S 728 mmHg 88%
    09:00 +8°C° 0.1 mm 1 m/S 728 mmHg 90%
    10:00 +8°C° 0.1 mm 2 m/S 728 mmHg 91%
    11:00 +8°C° 0.1 mm 2 m/S 728 mmHg 87%
    12:00 +8°C° 0.1 mm 2 m/S 728 mmHg 84%
    13:00 +9°C° 0.1 mm 2 m/S 728 mmHg 80%
    14:00 +9°C° 0 mm 2 m/S 728 mmHg 75%
    15:00 +10°C° 0 mm 2 m/S 728 mmHg 69%
    16:00 +10°C° 0 mm 2 m/S 728 mmHg 64%
    17:00 +9°C° 0 mm 2 m/S 728 mmHg 70%
    18:00 +8°C° 0 mm 2 m/S 728 mmHg 76%
    19:00 +6°C° 0 mm 2 m/S 729 mmHg 82%
    20:00 +5°C° 0 mm 2 m/S 729 mmHg 85%
    21:00 +5°C° 0 mm 2 m/S 730 mmHg 87%
    22:00 +4°C° 0 mm 2 m/S 730 mmHg 90%
    23:00 +4°C° 0 mm 2 m/S 730 mmHg 90%
    Mehr zeigen